[[{"header":{"parameterUnit":"m.s-1","parameterCategory":1,"la1":30.2991,"la2":30.254,"lo1":-89.0895,"lo2":-89.0444,"dy":0.0017,"dx":0.0017,"nx":28,"ny":28,"refTime":"2025-01-10T09:00:00:Z","depth":0,"parameterNumber":2,"parameterNumberName":"U-component_of_WINDS"},"data":[0,0,0,0,0,0,0,0,0,0,0,0,0,0,0,0,0,0,0,0,0,0,0,0,0,0,0,0,0,0,0,0,0,0,0,0,0,0,0,0,0,0,0,0,0,0,0,0,0,0,0,0,0,0,0,0,0,0,0.7645,0.7645,0,0.7651,0.7651,0.7651,0.7635,0.7634,0.7634,0.7633,0.7639,0.7639,0.764,0,0,0,0,0,0,0,0,0,0,0,0,0,0.7621,0.7622,0.7645,0.7645,0.7645,0.7651,0.7651,0.7651,0.7635,0.7634,0.7634,0.7633,0.7638,0.7639,0.764,0,0,0,0,0,0,0,0,0,0,0,0,0,0.763,0.7622,0.7645,0.7638,0.7638,0.7651,0.7651,0.7651,0.7635,0.7634,0.7634,0.7633,0.7638,0.7639,0.764,0.766,0,0,0.7643,0.7643,0,0,0,0,0,0,0,0,0.7629,0.7631,0.7639,0.7639,0.7638,0.7641,0.7644,0.7654,0.7635,0.7636,0.7633,0.7633,0.764,0.7641,0.7643,0.766,0.7661,0.7643,0.7643,0.7644,0.7644,0,0,0,0,0,0,0,0.7629,0.763,0.7647,0.7639,0.7639,0.7635,0.7635,0.7646,0.7642,0.7636,0.7635,0.7636,0.764,0.7643,0.7643,0.7661,0.7643,0.7643,0.7644,0.7644,0.7695,0.7696,0,0,0,0,0,0,0.7629,0.763,0.7647,0.7648,0.7632,0.7636,0.7636,0.7641,0.7642,0.7641,0.7636,0.7635,0.7641,0.7642,0.7644,0.7668,0.7644,0.7644,0.7645,0.7694,0.7695,0.7696,0,0,0,0,0,0,0.7629,0.7631,0.7647,0.7639,0.764,0.7637,0.7643,0.7642,0.7644,0.7642,0.7641,0.764,0.7641,0.7642,0.7656,0.7668,0.7645,0.7646,0.7693,0.7695,0.7696,0.7716,0,0,0,0,0,0,0.7628,0.7631,0.7638,0.7639,0.7641,0.766,0.7643,0.7642,0.7646,0.7644,0.7645,0.7645,0.764,0.7655,0.7657,0.7668,0.7646,0.7692,0.7694,0.7695,0.7714,0.7717,0.772,0,0,0,0,0,0.7627,0.7643,0.7639,0.7641,0.765,0.766,0.7661,0.7656,0.7647,0.7655,0.7653,0.7645,0.7666,0.7657,0.7659,0.767,0.7692,0.7694,0.7695,0.7713,0.7717,0.772,0,0,0,0,0,0,0.7643,0.7643,0.7638,0.7655,0.7658,0.7658,0.7667,0.766,0.7666,0.7664,0.7657,0.7657,0.7673,0.7673,0.7663,0.7691,0.7677,0.768,0.769,0.7694,0.7697,0.7696,0.7647,0,0,0,0,0,0.7649,0.7657,0.7657,0.7671,0.7673,0.767,0.7674,0.767,0.7673,0.7674,0.7673,0.7677,0.7684,0.7689,0.7695,0.7714,0.7714,0.7723,0.7727,0.7729,0.7731,0.7742,0.7746,0.7702,0.7702,0.7702,0,0,0.766,0.7661,0.7667,0.7675,0.7677,0.7686,0.7671,0.7681,0.7688,0.7675,0.7689,0.7689,0.7692,0.7708,0.7716,0.7709,0.7743,0.7732,0.7734,0.7734,0.7744,0.7748,0.7752,0.7704,0.7703,0.7703,0,0,0.7686,0.7687,0.77,0.7702,0.7706,0.7704,0.7707,0.7708,0.7708,0.7721,0.7712,0.772,0.7733,0.7736,0.7739,0.7767,0.7759,0.7769,0.7786,0.7796,0.7799,0.7802,0.7813,0.7816,0.7771,0.7771,0.7771,0,0.7699,0.7712,0.7707,0.7718,0.7722,0.7712,0.7725,0.7728,0.7733,0.7736,0.7729,0.7745,0.7746,0.7764,0.7771,0.7774,0.7777,0.7769,0.7799,0.7802,0.7805,0.7815,0.7819,0.7773,0.7772,0.7772,0.7772,0,0.7729,0.7739,0.7749,0.7755,0.776,0.7772,0.7768,0.7774,0.777,0.7769,0.7783,0.7785,0.7792,0.7796,0.7791,0.7813,0.7809,0.7801,0.7787,0.7811,0.782,0.7823,0.7774,0.7774,0.7773,0.7773,0,0,0.7764,0.7768,0.7771,0.7774,0.7778,0.7785,0.7797,0.7804,0.781,0.7814,0.7824,0.7836,0.7829,0.7832,0.7828,0.7837,0.786,0.7828,0.7828,0.7834,0.7884,0.789,0.7895,0.7855,0.7856,0.7857,0.7884,0,0.7789,0.7809,0.7805,0.7825,0.7834,0.7826,0.7836,0.784,0.7839,0.7847,0.7847,0.7855,0.7845,0.7847,0.7856,0.7855,0.787,0.7853,0.7865,0.7865,0.7864,0.7899,0.7905,0.7931,0.7888,0.7888,0.7889,0,0.782,0.7827,0.7848,0.7851,0.7855,0.7864,0.7871,0.7878,0.7883,0.7882,0.7886,0.7881,0.7893,0.788,0.7897,0.7886,0.7891,0.7891,0.7892,0.7893,0.7878,0.7901,0.7939,0.7943,0.7894,0.7894,0.7893,0,0.7844,0.7857,0.7872,0.7875,0.7879,0.7886,0.7888,0.7891,0.7896,0.7902,0.7906,0.7913,0.7917,0.7923,0.792,0.7911,0.7938,0.7924,0.7938,0.7938,0.7943,0.7943,0.7983,0.7946,0.7946,0.7946,0.7946,0,0.7872,0.7885,0.7882,0.7891,0.7906,0.7902,0.7917,0.7918,0.7922,0.7931,0.7924,0.7932,0.7928,0.7937,0.7934,0.7949,0.7951,0.7951,0.795,0.7951,0.7951,0.7954,0.7952,0.7947,0.7947,0.7947,0.7947,0,0.79,0.7899,0.7914,0.7917,0.7918,0.7929,0.7932,0.794,0.794,0.7952,0.7954,0.7953,0.7963,0.7961,0.7972,0.797,0.7989,0.7986,0.7987,0.7987,0.8,0.7999,0.8043,0.8048,0.8008,0.8009,0.8009,0,0.7918,0.7928,0.7932,0.7938,0.7941,0.795,0.7956,0.7953,0.7959,0.7965,0.7973,0.7982,0.7989,0.8006,0.8006,0.8014,0.8011,0.8026,0.8012,0.8014,0.8012,0.8011,0.8012,0.8029,0.8029,0.803,0.803,0,0.795,0.7949,0.7957,0.7965,0.7972,0.7979,0.7984,0.799,0.7987,0.7994,0.8004,0.801,0.8022,0.8031,0.8039,0.8041,0.8035,0.8035,0.8038,0.8039,0.804,0.804,0.7995,0.8033,0.8033,0.8033,0.8033,0.8032,0.7973,0.7982,0.7987,0.7997,0.8001,0.8007,0.8015,0.8016,0.8025,0.8034,0.8032,0.8044,0.8048,0.8059,0.8062,0.8071,0.8065,0.807,0.8072,0.8073,0.8075,0.8039,0.8073,0.8072,0.8072,0.8072,0.8072,0,0.8005,0.8008,0.8017,0.8025,0.8033,0.8028,0.8034,0.8041,0.8052,0.8057,0.8065,0.8077,0.8086,0.8088,0.8097,0.8104,0.8102,0.8107,0.8106,0.8107,0.8079,0.8075,0.8109,0.8109,0.8109,0.8109,0.8109,0.8109,0.8022,0.8037,0.8037,0.8055,0.8058,0.8069,0.8074,0.8079,0.8083,0.8098,0.8106,0.8107,0.8111,0.8121,0.8129,0.8129,0.8133,0.8139,0.8138,0.8112,0.8109,0.8105,0.8101,0.814,0.814,0.8165,0.8165,0.8166]},{"header":{"parameterUnit":"m.s-1","parameterCategory":1,"la1":30.2991,"la2":30.254,"lo1":-89.0895,"lo2":-89.0444,"dy":0.0017,"dx":0.0017,"nx":28,"ny":28,"refTime":"2025-01-10T09:00:00:Z","depth":0,"parameterNumber":3,"parameterNumberName":"V-component_of_WINDS"},"data":[0,0,0,0,0,0,0,0,0,0,0,0,0,0,0,0,0,0,0,0,0,0,0,0,0,0,0,0,0,0,0,0,0,0,0,0,0,0,0,0,0,0,0,0,0,0,0,0,0,0,0,0,0,0,0,0,0,0,-2.4584,-2.4585,0,-2.4677,-2.4678,-2.4679,-2.4677,-2.4676,-2.4675,-2.4673,-2.4766,-2.477,-2.4773,0,0,0,0,0,0,0,0,0,0,0,0,0,-2.4403,-2.4406,-2.4584,-2.4585,-2.4586,-2.4676,-2.4678,-2.4679,-2.4677,-2.4676,-2.4674,-2.4673,-2.4765,-2.4769,-2.4774,0,0,0,0,0,0,0,0,0,0,0,0,0,-2.4487,-2.4407,-2.4584,-2.4596,-2.4598,-2.4676,-2.4678,-2.4679,-2.4678,-2.4676,-2.4674,-2.4672,-2.4764,-2.4769,-2.4774,-2.4845,0,0,-2.4791,-2.4793,0,0,0,0,0,0,0,0,-2.4482,-2.4494,-2.4593,-2.4595,-2.4598,-2.4663,-2.4648,-2.4735,-2.4678,-2.4647,-2.4673,-2.4671,-2.4733,-2.4741,-2.4763,-2.4849,-2.4853,-2.4791,-2.4795,-2.4797,-2.4799,0,0,0,0,0,0,0,-2.4477,-2.449,-2.462,-2.4595,-2.4598,-2.4597,-2.4606,-2.4664,-2.47,-2.465,-2.465,-2.4661,-2.4734,-2.4757,-2.4765,-2.4855,-2.4791,-2.4796,-2.4799,-2.4802,-2.5004,-2.5006,0,0,0,0,0,0,-2.4468,-2.4485,-2.4617,-2.4623,-2.4534,-2.4601,-2.4612,-2.4644,-2.4699,-2.4706,-2.4663,-2.4661,-2.4749,-2.4758,-2.4768,-2.4854,-2.4797,-2.4802,-2.4805,-2.5002,-2.5005,-2.5007,0,0,0,0,0,0,-2.4465,-2.448,-2.4614,-2.4554,-2.4571,-2.4606,-2.4642,-2.4647,-2.467,-2.4709,-2.4715,-2.468,-2.4748,-2.476,-2.4826,-2.4858,-2.4805,-2.481,-2.5,-2.5003,-2.5006,-2.5028,0,0,0,0,0,0,-2.4459,-2.4479,-2.4507,-2.4555,-2.4574,-2.4671,-2.4644,-2.465,-2.468,-2.4678,-2.4726,-2.4733,-2.4747,-2.4818,-2.4832,-2.4864,-2.4814,-2.4997,-2.5001,-2.5005,-2.5024,-2.5031,-2.5037,0,0,0,0,0,-2.4453,-2.4509,-2.4508,-2.4524,-2.461,-2.4673,-2.4684,-2.47,-2.4682,-2.471,-2.4735,-2.4731,-2.4852,-2.4825,-2.484,-2.4875,-2.4995,-2.5,-2.5004,-2.5021,-2.503,-2.5037,0,0,0,0,0,0,-2.4462,-2.4515,-2.4515,-2.4588,-2.4626,-2.4672,-2.4708,-2.4709,-2.4752,-2.4748,-2.4766,-2.4777,-2.4843,-2.4865,-2.4834,-2.4946,-2.4921,-2.4929,-2.4929,-2.4937,-2.4943,-2.4936,-2.4818,0,0,0,0,0,-2.4473,-2.452,-2.4564,-2.4624,-2.4643,-2.4672,-2.47,-2.471,-2.475,-2.4765,-2.4795,-2.4833,-2.4879,-2.491,-2.4955,-2.5028,-2.5038,-2.5059,-2.5065,-2.5071,-2.5077,-2.5117,-2.5127,-2.5023,-2.5022,-2.5022,0,0,-2.4495,-2.453,-2.4559,-2.4627,-2.4657,-2.4705,-2.4686,-2.4737,-2.4773,-2.4773,-2.4837,-2.486,-2.4903,-2.4973,-2.5005,-2.4994,-2.5108,-2.5077,-2.508,-2.5084,-2.5123,-2.5133,-2.5142,-2.5026,-2.5025,-2.5025,0,0,-2.4561,-2.4592,-2.4646,-2.4677,-2.4723,-2.4743,-2.4755,-2.4802,-2.4817,-2.4882,-2.4883,-2.4925,-2.5005,-2.5036,-2.5062,-2.514,-2.5137,-2.5154,-2.5187,-2.5226,-2.5234,-2.5241,-2.5269,-2.5278,-2.516,-2.516,-2.516,0,-2.4582,-2.4655,-2.4673,-2.4725,-2.4755,-2.4758,-2.4812,-2.4841,-2.4899,-2.492,-2.4906,-2.5007,-2.5036,-2.5113,-2.5132,-2.5153,-2.5168,-2.5148,-2.5232,-2.5239,-2.5246,-2.5272,-2.5283,-2.5162,-2.5162,-2.5161,-2.5161,0,-2.468,-2.473,-2.4768,-2.4825,-2.4859,-2.4912,-2.4937,-2.4969,-2.4976,-2.4996,-2.5061,-2.5097,-2.5149,-2.5168,-2.5175,-2.5246,-2.5238,-2.5228,-2.5203,-2.5258,-2.5282,-2.5292,-2.5164,-2.5164,-2.5163,-2.5163,0,0,-2.4753,-2.482,-2.4833,-2.4859,-2.4911,-2.495,-2.5003,-2.5055,-2.5082,-2.5122,-2.5166,-2.5234,-2.5225,-2.5255,-2.5265,-2.5299,-2.5358,-2.5285,-2.5287,-2.5297,-2.5438,-2.5445,-2.5456,-2.5357,-2.5359,-2.5361,-2.5434,0,-2.4823,-2.4918,-2.4935,-2.5017,-2.5064,-2.5067,-2.5113,-2.515,-2.517,-2.5212,-2.5234,-2.5282,-2.5267,-2.5285,-2.5319,-2.5344,-2.5386,-2.5339,-2.5398,-2.54,-2.5386,-2.5469,-2.5477,-2.5544,-2.5444,-2.5446,-2.5447,0,-2.4918,-2.4961,-2.5048,-2.5094,-2.5114,-2.5155,-2.5204,-2.5244,-2.5286,-2.5298,-2.5331,-2.5338,-2.5392,-2.5365,-2.544,-2.5407,-2.5432,-2.5448,-2.5451,-2.5457,-2.5426,-2.5477,-2.5566,-2.5576,-2.5463,-2.5461,-2.546,0,-2.4962,-2.5042,-2.5105,-2.5127,-2.5182,-2.5211,-2.5235,-2.5274,-2.5304,-2.5347,-2.5366,-2.5414,-2.544,-2.5477,-2.5496,-2.5475,-2.5569,-2.5544,-2.558,-2.558,-2.56,-2.5598,-2.5694,-2.5617,-2.5616,-2.5616,-2.5616,0,-2.5038,-2.5091,-2.5125,-2.5164,-2.5223,-2.5242,-2.53,-2.5323,-2.5359,-2.5401,-2.5407,-2.5446,-2.5469,-2.5512,-2.5527,-2.5586,-2.5598,-2.5609,-2.5613,-2.5609,-2.5607,-2.5625,-2.5621,-2.5619,-2.5618,-2.5618,-2.5617,0,-2.5098,-2.5123,-2.5191,-2.5238,-2.525,-2.5292,-2.5332,-2.5369,-2.5389,-2.5443,-2.5456,-2.5488,-2.5539,-2.5562,-2.5624,-2.5634,-2.5702,-2.5702,-2.5688,-2.5689,-2.5724,-2.572,-2.5834,-2.585,-2.5763,-2.5763,-2.5764,0,-2.5144,-2.5185,-2.5237,-2.5266,-2.5291,-2.5338,-2.5369,-2.5389,-2.5421,-2.5471,-2.5502,-2.5553,-2.5595,-2.5676,-2.5704,-2.5751,-2.5753,-2.5789,-2.576,-2.5754,-2.5753,-2.575,-2.5754,-2.5794,-2.5795,-2.5796,-2.5797,0,-2.5225,-2.5235,-2.528,-2.533,-2.5366,-2.5406,-2.5445,-2.5468,-2.5495,-2.553,-2.5582,-2.5615,-2.5679,-2.5729,-2.5778,-2.5802,-2.5804,-2.5806,-2.5817,-2.5813,-2.5803,-2.5809,-2.5702,-2.5803,-2.5802,-2.5802,-2.5802,-2.5801,-2.5279,-2.5316,-2.5358,-2.5407,-2.5439,-2.5475,-2.5512,-2.5538,-2.5582,-2.5636,-2.5645,-2.5701,-2.5741,-2.5807,-2.5833,-2.5877,-2.5868,-2.5883,-2.5887,-2.5891,-2.5893,-2.5797,-2.5886,-2.5885,-2.5885,-2.5885,-2.5885,0,-2.536,-2.5387,-2.5433,-2.5487,-2.5526,-2.5525,-2.5568,-2.56,-2.5649,-2.5687,-2.5728,-2.5788,-2.5837,-2.5869,-2.5919,-2.5947,-2.5949,-2.5959,-2.5957,-2.5963,-2.5898,-2.5884,-2.5957,-2.5957,-2.5957,-2.5957,-2.5957,-2.5957,-2.5406,-2.5468,-2.5483,-2.5561,-2.5587,-2.5642,-2.5667,-2.57,-2.573,-2.5797,-2.5838,-2.5859,-2.5895,-2.5947,-2.5991,-2.6,-2.6017,-2.6028,-2.6036,-2.5975,-2.5967,-2.596,-2.5946,-2.6032,-2.6032,-2.6097,-2.6097,-2.6098]}]]